Weather History for Opa Locka, FL

Change the Weather History Date:

Friday, March 29, 2013

  Actual Average Record
Temperature  
Mean Temperature 66 °F -  
Max Temperature 77 °F 80 °F 86 °F (1954)
Min Temperature 57 °F 66 °F 46 °F (1955)
Cooling Degree Days 1    
Growing Degree Days 16 (Base 50)    
Moisture  
Dew Point 47 °F    
Average Humidity 51    
Maximum Humidity 63    
Minimum Humidity 37    
Precipitation  
Precipitation 0.00 in - - ()
Sea Level Pressure  
Sea Level Pressure 30.25 in    
Wind  
Wind Speed 7 mph (NE)    
Max Wind Speed 18 mph    
Max Gust Speed 24 mph    
Visibility 10 miles    
Events      
Averages and records for this station are not official NWS values.
T = Trace of Precipitation, MM = Missing Value Source: NWS Daily Summary

Daily Weather History Graph

Daily Weather History Graph

Search for Another Location

Airport:

Trip Planner

Search our weather history database for the weather conditions in past years. The results will help you decide how hot, cold, wet, or windy it might be!

Date:

Astronomy

Mar. 29, 2013 Rise Set
Actual Time 7:15 AM EDT 7:36 PM EDT
Civil Twilight 6:52 AM EDT 7:59 PM EDT
Nautical Twilight 6:25 AM EDT 8:26 PM EDT
Astronomical Twilight 5:57 AM EDT 8:54 PM EDT
Moon 10:14 PM EDT (3/29) 8:39 AM EDT (3/29)
Length of Visible Light 13h 07m
Length of Day
12h 21m
Waning Gibbous, 93% of the Moon is Illuminated
Mar 29
Waning Gibbous
Apr 3
Last Quarter
Apr 10
New
Apr 18
First Quarter
Apr 25
Full

Hourly Weather History & Observations

Time (EDT) Temp. Dew Point Humidity Pressure Visibility Wind Dir Wind Speed Gust Speed Precip Events Conditions
12:53 AM 60.1 °F 39.9 °F 47% 30.26 in 10.0 mi North 4.6 mph - N/A   Clear
1:53 AM 59.0 °F 41.0 °F 51% 30.25 in 10.0 mi North 5.8 mph - N/A   Clear
2:53 AM 59.0 °F 44.1 °F 58% 30.24 in 10.0 mi North 5.8 mph - N/A   Clear
3:53 AM 59.0 °F 45.0 °F 60% 30.23 in 10.0 mi North 5.8 mph - N/A   Clear
4:53 AM 59.0 °F 44.1 °F 58% 30.22 in 10.0 mi North 6.9 mph - N/A   Clear
5:53 AM 57.9 °F 44.1 °F 60% 30.23 in 10.0 mi North 5.8 mph - N/A   Clear
6:53 AM 59.0 °F 44.1 °F 58% 30.25 in 10.0 mi North 6.9 mph - N/A   Clear
7:53 AM 60.1 °F 45.0 °F 57% 30.26 in 10.0 mi North 8.1 mph - N/A   Clear
8:53 AM 66.0 °F 46.0 °F 48% 30.28 in 10.0 mi North 9.2 mph - N/A   Clear
9:53 AM 71.1 °F 46.0 °F 41% 30.29 in 10.0 mi North 9.2 mph - N/A   Clear
10:53 AM 73.9 °F 48.0 °F 40% 30.30 in 10.0 mi NE 8.1 mph 18.4 mph N/A   Clear
11:53 AM 75.0 °F 46.9 °F 37% 30.30 in 10.0 mi NNE 9.2 mph 18.4 mph N/A   Scattered Clouds
12:53 PM 73.9 °F 46.9 °F 38% 30.28 in 10.0 mi North - - N/A   Scattered Clouds
1:53 PM 75.9 °F 48.0 °F 37% 30.26 in 10.0 mi ENE 11.5 mph 20.7 mph N/A   Scattered Clouds
2:53 PM 73.9 °F 50.0 °F 43% 30.24 in 10.0 mi East 18.4 mph 24.2 mph N/A   Mostly Cloudy
3:53 PM 75.9 °F 51.1 °F 42% 30.22 in 10.0 mi East 13.8 mph 21.9 mph N/A   Scattered Clouds
4:53 PM 72.0 °F 51.1 °F 48% 30.22 in 10.0 mi East 11.5 mph - N/A   Mostly Cloudy
5:53 PM 71.1 °F 50.0 °F 47% 30.23 in 10.0 mi East 10.4 mph 20.7 mph N/A   Scattered Clouds
6:53 PM 70.0 °F 50.0 °F 49% 30.22 in 10.0 mi ENE 12.7 mph - N/A   Mostly Cloudy
7:53 PM 66.9 °F 50.0 °F 54% 30.23 in 10.0 mi East 11.5 mph - N/A   Clear
8:53 PM 66.0 °F 51.1 °F 59% 30.24 in 10.0 mi East 6.9 mph - N/A   Clear
9:53 PM 64.0 °F 51.1 °F 63% 30.25 in 10.0 mi ENE 5.8 mph - N/A   Clear
10:53 PM 64.0 °F 51.1 °F 63% 30.26 in 10.0 mi East 3.5 mph - N/A   Clear
11:53 PM 64.9 °F 51.1 °F 61% 30.26 in 10.0 mi Calm Calm - N/A   Clear